Location: Borotín
(49.5055°N, 14.6142°E)
Time: 12:22:27
(UTC+00:00)

Cosmos 1271 Rocket - Pass Details

Date: 27 May 2022
Orbit: 495 x 539 km, 81.2° (Epoch: 27 June)

Event Time Altitude Azimuth Distance (km) Brightness Sun altitude
Rises 00:34:07 0° 355° (N) 2,625 7.4 -16.1°
Reaches altitude 10° 00:36:23 10° 4° (N) 1,742 6.5 -16.0°
Maximum altitude 00:39:55 35° 72° (ENE) 850 4.2 -15.7°
Drops below altitude 10° 00:43:28 10° 139° (SE) 1,753 5.1 -15.5°
Enters shadow 00:44:00 - 142° (SE) 1,956 5.4 -15.5°
